Location: Niedergestelen
(46.3129°N, 7.7822°E)
Time: 05:08:26
(UTC+00:00)

Cosmos 2221 - Pass Details

Date: 01 December 2020
Orbit: 593 x 615 km, 82.5° (Epoch: 18 January)

Event Time Altitude Azimuth Distance (km) Brightness Sun altitude
Rises 16:12:51 0° 210° (SSW) 2,854 7.0 -5.2°
Reaches altitude 10° 16:15:14 10° 219° (SW) 1,951 6.4 -5.5°
Maximum altitude 16:19:10 34° 285° (WNW) 995 4.2 -6.1°
Drops below altitude 10° 16:23:08 10° 352° (N) 1,953 5.0 -6.8°
Sets 16:25:31 0° 2° (N) 2,857 5.7 -7.1°
